Nausori, Fiji

1:05 PM +12 on August 23, 2017 (GMT +1200)
Nausori International

Weather History for NFNA - November, 2012

Change the Weather History Date:

Sunday, November 18, 2012

  Actual Average Record
Temperature  
Mean Temperature 80 °F -  
Max Temperature 84 °F 85 °F - ()
Min Temperature 75 °F 73 °F - ()
Cooling Degree Days 14    
Growing Degree Days 30 (Base 50)    
Moisture  
Dew Point 76 °F    
Average Humidity 89    
Maximum Humidity 100    
Minimum Humidity 67    
Precipitation  
Precipitation 0.24 in 0.35 in - ()
Sea Level Pressure  
Sea Level Pressure 29.92 in    
Wind  
Wind Speed 7 mph ()    
Max Wind Speed 21 mph    
Max Gust Speed -    
Visibility 13.2 miles    
Events Rain    
T = Trace of Precipitation, MM = Missing Value Source: Averaged Metar Reports

Daily Weather History Graph

Daily Weather History Graph

Search for Another Location

Airport or City:

Trip Planner

Search our weather history database for the weather conditions in past years. The results will help you decide how hot, cold, wet, or windy it might be!

Date:

Astronomy

Nov. 18, 2012 Rise Set
Actual Time 6:21 AM +13 7:20 PM +13
Civil Twilight 5:57 AM +13 7:44 PM +13
Nautical Twilight 5:30 AM +13 8:11 PM +13
Astronomical Twilight 5:01 AM +13 8:40 PM +13
Moon 10:21 AM +13 (11/18) 11:35 PM +13 (11/18)
Length of Visible Light 13h 46m
Length of Day
12h 59m
Waxing Crescent, 22% of the Moon is Illuminated
Nov 18
Waxing Crescent
Nov 21
First Quarter
Nov 29
Full
Dec 7
Last Quarter
Dec 13
New

Hourly Weather History & Observations

Time (+13) Temp. Heat Index Dew Point Humidity Pressure Visibility Wind Dir Wind Speed Gust Speed Precip Events Conditions
12:00 AM 78.8 °F - 77.0 °F 94% 29.95 in 24.9 mi East 8.1 mph - N/A   Mostly Cloudy
1:00 AM 78 °F - 76 °F 94% 29.94 in 12 mi ENE 5.8 mph - - Rain Light Rain Showers
1:00 AM 78.8 °F - 77.0 °F 94% 29.92 in 24.9 mi ENE 5.8 mph - N/A   Mostly Cloudy
2:00 AM 78.8 °F - 77.0 °F 94% 29.92 in 24.9 mi East 8.1 mph - N/A   Mostly Cloudy
3:00 AM 78.8 °F - 77.0 °F 94% 29.89 in 24.9 mi East 5.8 mph - N/A   Mostly Cloudy
4:00 AM 78 °F - 76 °F 93% 29.90 in 12 mi ENE 5.8 mph - -   Partly Cloudy
4:00 AM 78.8 °F - 77.0 °F 94% 29.89 in 24.9 mi ENE 5.8 mph - N/A   Mostly Cloudy
5:00 AM 78.8 °F - 77.0 °F 94% 29.89 in 24.9 mi East 6.9 mph - N/A   Mostly Cloudy
6:00 AM 78.8 °F - 75.2 °F 89% 29.89 in 24.9 mi ENE 6.9 mph - N/A   Mostly Cloudy
7:00 AM 77 °F - 76 °F 94% 29.92 in 12 mi East 15.0 mph - - Rain Light Rain Showers
7:00 AM 77.0 °F - 75.2 °F 94% 29.92 in 18.6 mi East 15.0 mph - N/A Rain Light Rain Showers
8:00 AM 77.0 °F - 75.2 °F 94% 29.92 in 18.6 mi Calm Calm - N/A Rain Light Rain Showers
9:00 AM 78.8 °F - 75.2 °F 89% 29.95 in 24.9 mi NE 3.5 mph - N/A   Mostly Cloudy
10:00 AM 82 °F - 76 °F 79% 29.94 in 12 mi ENE 12.7 mph - -   Partly Cloudy
10:00 AM 82.4 °F 90.9 °F 77.0 °F 84% 29.92 in 24.9 mi ENE 12.7 mph - N/A   Mostly Cloudy
11:00 AM 82.4 °F 90.9 °F 77.0 °F 84% 29.92 in 24.9 mi East 13.8 mph - N/A   Mostly Cloudy
12:00 PM 82.4 °F 90.9 °F 77.0 °F 84% 29.92 in 31.1 mi ENE 13.8 mph - N/A Rain Light Rain Showers
1:00 PM 84 °F - 75 °F 67% 29.92 in 31 mi ENE 20.7 mph - -   Partly Cloudy
1:00 PM 84.2 °F 92.3 °F 75.2 °F 74% 29.92 in 31.1 mi ENE 20.7 mph - N/A   Mostly Cloudy
2:00 PM 84.2 °F 92.3 °F 75.2 °F 74% 29.92 in 31.1 mi NNE 15.0 mph - N/A   Mostly Cloudy
3:00 PM 80.6 °F 85.4 °F 73.4 °F 79% 29.89 in 31.1 mi NNE 9.2 mph - N/A   Mostly Cloudy
4:00 PM 83 °F - 74 °F 69% 29.90 in 31 mi NE 10.4 mph - -   Partly Cloudy
4:00 PM 82.4 °F 89.5 °F 75.2 °F 79% 29.89 in 31.1 mi NE 10.4 mph - N/A   Mostly Cloudy
6:00 PM 75.2 °F - 75.2 °F 100% 29.89 in 12.4 mi Calm Calm - N/A Rain Light Rain Showers
7:00 PM 76 °F - 75 °F 96% 29.93 in 12 mi Calm Calm - - Rain Light Rain Showers
7:00 PM 77.0 °F - 75.2 °F 94% 29.92 in 12.4 mi Calm Calm - N/A Rain Light Rain Showers
8:00 PM 77.0 °F - 75.2 °F 94% 29.95 in 12.4 mi Calm Calm - N/A Rain Light Rain Showers
9:00 PM 75.2 °F - 75.2 °F 100% 29.95 in 12.4 mi Calm Calm - N/A Rain Light Rain Showers
10:00 PM 76 °F - 75 °F 97% 29.97 in 12 mi Calm Calm - - Rain Light Rain Showers
10:00 PM 75.2 °F - 75.2 °F 100% 29.95 in 12.4 mi Calm Calm - N/A Rain Light Rain Showers
11:00 PM 75.2 °F - 75.2 °F 100% 29.98 in 24.9 mi Calm Calm - N/A   Overcast